Regional Weather Roundup
Issued by NWS Charleston, WV

Home | Current Version | Previous Version | Graphics & Text | Print | Product List | Glossary On
Versions: 1 2 3 4 5 6 7 8 9 10 11 12 13 14 15 16 17 18 19 20 21 22 23 24 25 26 27 28 29 30 31 32 33 34 35 36 37 38 39 40 41 42 43 44 45
000
ASUS41 KRLX 010510
RWRRLX
West Virginia Regional Weather Roundup
National Weather Service Charleston WV
1200 AM EST WED MAR 01 2017

Note: "fair" indicates few or no clouds below 12,000 feet with no
significant weather and/or obstructions to visibility.

WVZ003-010600-
Northern Panhandle of West Virginia

CITY           SKY/WX    TMP DP  RH WIND       PRES   REMARKS
WHEELING       CLOUDY    57  52  83 SW21G28   29.85F
$$

WVZ009-010600-
Northwest West Virginia

CITY           SKY/WX    TMP DP  RH WIND       PRES   REMARKS
PARKERSBURG    CLOUDY    58  54  86 S9        29.90F
$$

WVZ006-010600-
Western West Virginia

CITY           SKY/WX    TMP DP  RH WIND       PRES   REMARKS
HUNTINGTON     CLOUDY    61  56  83 S12       29.89F
$$

WVZ015-010600-
West Central West Virginia

CITY           SKY/WX    TMP DP  RH WIND       PRES   REMARKS
CHARLESTON     CLOUDY    58  55  90 S10       29.92F
$$

WVZ022-031-010600-
North Central West Virginia

CITY           SKY/WX    TMP DP  RH WIND       PRES   REMARKS
CLARKSBURG     CLOUDY    55  52  89 S6        29.92F
MORGANTOWN     CLOUDY    57  52  83 S5        29.91F
$$

WVZ025-035-042-045-010600-
Southern West Virginia

CITY           SKY/WX    TMP DP  RH WIND       PRES   REMARKS
BECKLEY        CLOUDY    58  52  80 SW13G23   30.02F
LOGAN          CLOUDY    61  55  82 VRB7G14   29.97F
BLUEFIELD      CLOUDY    57  50  77 SW14      30.06F
LEWISBURG      CLOUDY    46  46  97 CALM      30.04F FOG
$$

WVZ047-010600-
Northern Mountains of West Virginia

CITY           SKY/WX    TMP DP  RH WIND       PRES   REMARKS
ELKINS         CLOUDY    53  49  86 SE6       29.98F
$$

WVZ052-010600-
Eastern Panhandle of West Virginia

CITY           SKY/WX    TMP DP  RH WIND       PRES   REMARKS
MARTINSBURG    CLOUDY    51  49  92 VRB6      29.95F
PETERSBURG     CLOUDY    52  50  94 NW5       29.98F
$$




USA.gov is the U.S. government's official web portal to all federal, state and local government web resources and services.